Location: Namasale
(1.5000°N, 32.6167°E)
Time: 08:42:13
(UTC+00:00)

Vanguard 3 - All Passes

Search period start: 19 April 2021 00:00
Search period end: 29 April 2021 00:00
Orbit: 508 x 3262 km, 33.3° (Epoch: 18 April)

Date Brightness Start Highest point End Pass type
(mag) Time Alt. Az. Time Alt. Az. Time Alt. Az.
19 Apr - 05:18:13 10° N 05:22:57 23° NE 05:29:53 10° E daylight
19 Apr - 07:27:23 10° WNW 07:35:09 80° SW 07:49:34 10° SE daylight
19 Apr - 09:41:07 10° W 09:51:13 32° SSW 10:06:07 10° SSE daylight
19 Apr - 12:01:41 10° SW 12:11:49 17° S 12:23:09 10° SSE daylight
19 Apr - 14:24:08 10° SSW 14:35:32 17° S 14:45:46 10° SE daylight
19 Apr - 16:41:07 10° SSW 16:56:11 32° SSE 17:06:27 10° E visible
19 Apr - 18:57:41 10° SW 19:12:21 79° SE 19:20:15 10° ENE visible
19 Apr - 21:17:25 10° W 21:24:37 23° NW 21:29:27 10° N night (unlit)
20 Apr - 06:14:10 10° NW 06:20:25 59° NE 06:31:43 10° ESE daylight
20 Apr - 08:25:44 10° W 08:34:23 44° SSW 08:48:56 10° SE daylight
20 Apr - 10:42:52 10° WSW 10:52:42 21° SSW 11:05:12 10° SSE daylight
20 Apr - 13:05:34 10° SSW 13:15:34 16° S 13:25:40 10° SE daylight
20 Apr - 15:23:56 10° SSW 15:38:12 24° SSE 15:49:28 10° ESE daylight
20 Apr - 17:40:08 10° SW 17:56:29 53° SSE 18:06:07 10° ENE visible
20 Apr - 19:58:14 10° WSW 20:10:29 51° NW 20:17:21 10° NE visible
21 Apr - 05:01:55 10° NNW 05:06:28 26° NE 05:13:18 10° E daylight
21 Apr - 07:11:29 10° WNW 07:18:37 66° SSW 07:31:43 10° SE daylight
21 Apr - 09:25:46 10° WSW 09:34:46 26° SSW 09:47:48 10° SSE daylight
21 Apr - 11:46:32 10° SW 11:55:35 16° S 12:05:44 10° SSE daylight
21 Apr - 14:06:42 10° SSW 14:19:10 19° SSE 14:30:31 10° SE daylight
21 Apr - 16:22:53 10° SW 16:39:33 38° SSE 16:50:51 10° E visible
21 Apr - 18:39:51 10° SW 18:55:37 88° NW 19:04:14 10° NE visible
21 Apr - 21:00:51 10° W 21:08:05 21° NW 21:13:07 10° N visible
22 Apr - 05:58:08 10° NW 06:03:54 71° NE 06:14:23 10° ESE daylight
22 Apr - 08:10:10 10° W 08:17:58 35° SSW 08:30:44 10° SE daylight
22 Apr - 10:27:57 10° SW 10:36:26 18° S 10:47:00 10° SSE daylight
22 Apr - 12:49:14 10° SSW 12:59:20 16° S 13:09:42 10° SE daylight
22 Apr - 15:05:56 10° SSW 15:21:35 28° SSE 15:34:01 10° ESE daylight
22 Apr - 17:22:03 10° SW 17:39:42 63° SSE 17:50:12 10° ENE visible
22 Apr - 19:40:55 10° WSW 19:53:44 45° NW 20:01:09 10° NNE visible
23 Apr - 04:45:40 10° NNW 04:50:02 30° NE 04:56:43 10° E daylight
23 Apr - 06:55:44 10° WNW 07:02:14 52° SSW 07:13:52 10° SE daylight
23 Apr - 09:10:41 10° WSW 09:18:29 21° SSW 09:29:22 10° SSE daylight
23 Apr - 11:31:23 10° SSW 11:39:25 14° S 11:48:26 10° SSE daylight
23 Apr - 13:49:14 10° SSW 14:02:40 21° SSE 14:15:06 10° ESE daylight
23 Apr - 16:04:46 10° SW 16:22:43 45° SSE 16:35:03 10° E visible
23 Apr - 18:22:04 10° WSW 18:38:45 77° NW 18:48:06 10° NE visible
23 Apr - 20:44:20 10° W 20:51:33 19° NW 20:56:43 10° N visible
24 Apr - 05:42:11 10° NW 05:47:31 88° NE 05:57:05 10° SE daylight
24 Apr - 07:54:49 10° WSW 08:01:44 28° SSW 08:12:28 10° SSE daylight
24 Apr - 10:13:22 10° SW 10:20:17 15° S 10:28:39 10° SSE daylight
24 Apr - 12:32:43 10° SSW 12:43:03 17° SSE 12:53:51 10° SE daylight
24 Apr - 14:48:01 10° SSW 15:04:47 33° SSE 15:18:21 10° E daylight
24 Apr - 17:04:01 10° SW 17:22:44 72° SE 17:34:08 10° ENE visible
24 Apr - 19:23:39 10° WSW 19:36:55 40° NW 19:44:52 10° NNE visible
25 Apr - 04:29:28 10° NNW 04:33:39 36° NE 04:40:07 10° ESE daylight
25 Apr - 06:40:08 10° W 06:46:00 40° SSW 06:56:02 10° SE daylight
25 Apr - 08:55:58 10° SW 09:02:21 17° SSW 09:10:46 10° SSE daylight
25 Apr - 11:16:10 10° SSW 11:23:19 14° S 11:31:19 10° SSE daylight
25 Apr - 13:31:47 10° SSW 13:46:02 24° SSE 13:59:31 10° ESE daylight
25 Apr - 15:46:45 10° SW 16:05:41 51° SSE 16:19:02 10° ENE visible
25 Apr - 18:04:20 10° WSW 18:21:44 68° NW 18:31:51 10° NE visible
25 Apr - 20:27:52 10° WNW 20:35:01 18° NW 20:40:17 10° N visible
26 Apr - 03:18:30 10° NNE 03:20:03 12° NE 03:21:48 10° ENE visible
26 Apr - 05:26:21 10° WNW 05:31:15 72° SSW 05:39:47 10° SE daylight
26 Apr - 07:39:46 10° WSW 07:45:36 21° SSW 07:54:07 10° SSE daylight
26 Apr - 09:59:12 10° SSW 10:04:15 12° S 10:10:04 10° SSE daylight
26 Apr - 12:16:02 10° SSW 12:26:41 17° SSE 12:38:03 10° SE daylight
26 Apr - 14:30:12 10° SSW 14:47:47 37° SSE 15:02:27 10° E daylight
26 Apr - 16:46:06 10° SW 17:05:35 82° SE 17:17:54 10° ENE visible
26 Apr - 19:06:26 10° W 19:20:03 36° NW 19:28:32 10° NNE visible
27 Apr - 04:13:20 10° NW 04:17:22 47° NE 04:23:30 10° ESE daylight
27 Apr - 06:24:43 10° W 06:29:54 30° SSW 06:38:09 10° SSE daylight
27 Apr - 08:41:51 10° SW 08:46:20 13° S 08:51:47 10° SSE daylight
27 Apr - 11:00:47 10° SSW 11:07:12 13° S 11:14:25 10° SSE daylight
27 Apr - 13:14:22 10° SSW 13:29:13 27° SSE 13:43:43 10° ESE daylight
27 Apr - 15:28:51 10° SW 15:48:29 59° SSE 16:02:51 10° ENE daylight
27 Apr - 17:46:41 10° WSW 18:04:35 61° NW 18:15:31 10° NE visible
27 Apr - 20:11:28 10° WNW 20:18:29 16° NW 20:23:49 10° N visible
28 Apr - 03:01:32 10° N 03:03:48 15° NE 03:06:26 10° ENE visible
28 Apr - 05:10:37 10° WNW 05:15:07 52° SSW 05:22:30 10° SE daylight
28 Apr - 07:25:07 10° SW 07:29:37 16° SSW 07:35:33 10° SSE daylight
28 Apr - 09:46:11 10° S 09:48:17 10° S 09:50:32 10° S daylight
28 Apr - 11:59:15 10° SSW 12:10:13 19° SSE 12:22:13 10° ESE daylight
28 Apr - 14:12:30 10° SW 14:30:37 42° SSE 14:46:20 10° E daylight
28 Apr - 16:28:18 10° SW 16:48:17 89° NW 17:01:33 10° NE visible
28 Apr - 18:49:18 10° W 19:03:09 33° NW 19:12:08 10° NNE visible
